Flag for Canada Weather past 2 weeks in Toronto, Ontario, Canada

Now
63 °F

Low clouds.


Feels Like: 63 °F
Forecast: N/A
Wind: 6 mph from East

Location: Toronto Pearson International Airport

Current Time: Jun 30, 2015 at 4:44:21 PM

Latest Report: Jun 30, 2015 at 4:00 PM


Visibility: 12 mi

Pressure: 29.78 "Hg

Humidity: 88%

Dew point: 59 °F

Location of TorontoLocation

Historic Weather in Toronto — Graph

°F

Toronto temperature yesterday

Maximum temperature yesterday: 75 °F (at 4:00 PM)
Minimum temperature yesterday: 57 °F (at 4:00 AM)
Average temperature yesterday: 66 °F

Past Weeks' High & Low Weather Summary

 TemperatureHumidityPressure
High81 °F (Jun 16, 2:00 PM)100% (Jun 28, 11:00 AM)30.19 "Hg (Jun 28, 11:00 AM)
Low54 °F (Jun 20, 5:00 AM)38% (Jun 26, 8:00 PM)29.63 "Hg (Jun 23, 5:00 AM)
Average67 °F69%29.93 "Hg
* Reported Jun 15 3:00 PM — Jun 30 3:00 PM, Toronto, Weather by CustomWeather, © 2015

Note: Actual official high and low records may vary slightly from our data, if they occured in-between our weather recording intervals... More about our weather records

Advertising

Toronto weather history for previous 24 hours

 ConditionsComfort  
Time TempWeatherWind HumidityBarometerVisibility
3:00 PM
Tue, Jun 30
63 °FLight rain. Mostly cloudy.8 mph88%29.79 "Hg12 mi
2:00 PM64 °FOvercast.12 mph83%29.80 "Hg15 mi
1:00 PM64 °FOvercast.12 mph83%29.81 "Hg15 mi
12:00 PM64 °FMostly cloudy.12 mph83%29.81 "Hg15 mi
11:00 AM66 °FMore clouds than sun.10 mph73%29.82 "Hg15 mi
10:00 AM68 °FBroken clouds.9 mph69%29.83 "Hg15 mi
9:00 AM64 °FBroken clouds.7 mph78%29.84 "Hg15 mi
8:00 AM63 °FOvercast.7 mph77%29.85 "Hg15 mi
7:00 AM63 °FPartly sunny.3 mph77%29.84 "Hg12 mi
6:00 AM61 °FPassing clouds.5 mph88%29.84 "Hg15 mi
5:00 AM61 °FPassing clouds.5 mph88%29.84 "Hg15 mi
4:00 AM61 °FPassing clouds.2 mph88%29.85 "Hg15 mi
3:00 AM61 °FPassing clouds.2 mph88%29.85 "Hg15 mi
2:00 AM61 °FPassing clouds.5 mph88%29.87 "Hg15 mi
1:00 AM63 °FPassing clouds.5 mph83%29.88 "Hg15 mi
12:00 AM64 °FPassing clouds.2 mph78%29.88 "Hg15 mi
11:00 PM
Mon, Jun 29
66 °FPassing clouds.5 mph73%29.89 "Hg15 mi
10:00 PM68 °FPassing clouds.3 mph69%29.88 "Hg15 mi
9:00 PM68 °FScattered clouds.6 mph64%29.87 "Hg15 mi
8:00 PM70 °FScattered clouds.7 mph60%29.87 "Hg15 mi
7:00 PM73 °FPartly sunny.10 mph53%29.86 "Hg15 mi
6:00 PM73 °FBroken clouds.13 mph57%29.86 "Hg15 mi
5:00 PM73 °FBroken clouds.10 mph61%29.86 "Hg15 mi
4:00 PM75 °FBroken clouds.13 mph50%29.87 "Hg15 mi
Weather by CustomWeather, © 2015

See weather overviewHow to use our weather pages